Year,Month,Day,Hour,Minute,Value (Times are PST for temperature in C)
2012,10,08,00,00,8.60
2012,10,08,00,01,8.60
2012,10,08,00,02,8.60
2012,10,08,00,03,8.60
2012,10,08,00,04,8.60
2012,10,08,00,05,8.60
2012,10,08,00,06,8.60
2012,10,08,00,07,8.50
2012,10,08,00,08,8.50
2012,10,08,00,09,8.50
2012,10,08,00,10,8.50
2012,10,08,00,11,8.50
2012,10,08,00,12,8.40
2012,10,08,00,13,8.40
2012,10,08,00,14,8.40
2012,10,08,00,15,8.30
2012,10,08,00,16,8.30
2012,10,08,00,17,8.30
2012,10,08,00,18,8.30
2012,10,08,00,19,8.30
2012,10,08,00,20,8.20
2012,10,08,00,21,8.20
2012,10,08,00,22,8.20
2012,10,08,00,23,8.20
2012,10,08,00,24,8.30
2012,10,08,00,25,8.30
2012,10,08,00,26,8.30
2012,10,08,00,27,8.30
2012,10,08,00,28,8.30
2012,10,08,00,29,8.30
2012,10,08,00,30,8.30
2012,10,08,00,31,8.30
2012,10,08,00,32,8.30
2012,10,08,00,33,8.30
2012,10,08,00,34,8.20
2012,10,08,00,35,8.20
2012,10,08,00,36,8.20
2012,10,08,00,37,8.20
2012,10,08,00,38,8.20
2012,10,08,00,39,8.20
2012,10,08,00,40,8.20
2012,10,08,00,41,8.20
2012,10,08,00,42,8.20
2012,10,08,00,43,8.20
2012,10,08,00,44,8.20
2012,10,08,00,45,8.20
2012,10,08,00,46,8.20
2012,10,08,00,47,8.20
2012,10,08,00,48,8.20
2012,10,08,00,49,8.20
2012,10,08,00,50,8.10
2012,10,08,00,51,8.10
2012,10,08,00,52,8.10
2012,10,08,00,53,8.00
2012,10,08,00,54,8.00
2012,10,08,00,55,7.90
2012,10,08,00,56,7.90
2012,10,08,00,57,7.90
2012,10,08,00,58,7.80
2012,10,08,00,59,7.80
2012,10,08,01,00,7.80
2012,10,08,01,01,7.80
2012,10,08,01,02,7.80
2012,10,08,01,03,7.80
2012,10,08,01,04,7.80
2012,10,08,01,05,7.80
2012,10,08,01,06,7.80
2012,10,08,01,07,7.80
2012,10,08,01,08,7.80
2012,10,08,01,09,7.80
2012,10,08,01,10,7.80
2012,10,08,01,11,7.80
2012,10,08,01,12,7.80
2012,10,08,01,13,7.80
2012,10,08,01,14,7.80
2012,10,08,01,15,7.80
2012,10,08,01,16,7.80
2012,10,08,01,17,7.80
2012,10,08,01,18,7.80
2012,10,08,01,19,7.80
2012,10,08,01,20,7.80
2012,10,08,01,21,7.80
2012,10,08,01,22,7.80
2012,10,08,01,23,7.80
2012,10,08,01,24,7.80
2012,10,08,01,25,7.80
2012,10,08,01,26,7.80
2012,10,08,01,27,7.80
2012,10,08,01,28,7.80
2012,10,08,01,29,7.90
2012,10,08,01,30,7.90
2012,10,08,01,31,7.90
2012,10,08,01,32,7.90
2012,10,08,01,33,7.90
2012,10,08,01,34,7.90
2012,10,08,01,35,7.90
2012,10,08,01,36,7.90
2012,10,08,01,37,7.90
2012,10,08,01,38,7.80
2012,10,08,01,39,7.80
2012,10,08,01,40,7.80
2012,10,08,01,41,7.80
2012,10,08,01,42,7.80
2012,10,08,01,43,7.80
2012,10,08,01,44,7.80
2012,10,08,01,45,7.80
2012,10,08,01,46,7.80
2012,10,08,01,47,7.80
2012,10,08,01,48,7.80
2012,10,08,01,49,7.80
2012,10,08,01,50,7.80
2012,10,08,01,51,7.80
2012,10,08,01,52,7.80
2012,10,08,01,53,7.80
2012,10,08,01,54,7.90
2012,10,08,01,55,7.90
2012,10,08,01,56,7.90
2012,10,08,01,57,8.00
2012,10,08,01,58,8.00
2012,10,08,01,59,8.00
2012,10,08,02,00,8.00
2012,10,08,02,01,8.00
2012,10,08,02,02,8.00
2012,10,08,02,03,8.00
2012,10,08,02,04,8.00
2012,10,08,02,05,8.00
2012,10,08,02,06,7.90
2012,10,08,02,07,7.90
2012,10,08,02,08,7.90
2012,10,08,02,09,7.90
2012,10,08,02,10,7.90
2012,10,08,02,11,7.80
2012,10,08,02,12,7.80
2012,10,08,02,13,7.80
2012,10,08,02,14,7.80
2012,10,08,02,15,7.80
2012,10,08,02,16,7.80
2012,10,08,02,17,7.80
2012,10,08,02,18,7.80
2012,10,08,02,19,7.80
2012,10,08,02,20,7.80
2012,10,08,02,21,7.80
2012,10,08,02,22,7.80
2012,10,08,02,23,7.80
2012,10,08,02,24,7.80
2012,10,08,02,25,7.80
2012,10,08,02,26,7.80
2012,10,08,02,27,7.80
2012,10,08,02,28,7.80
2012,10,08,02,29,7.80
2012,10,08,02,30,7.80
2012,10,08,02,31,7.80
2012,10,08,02,32,7.80
2012,10,08,02,33,7.80
2012,10,08,02,34,7.80
2012,10,08,02,35,7.80
2012,10,08,02,36,7.80
2012,10,08,02,37,7.80
2012,10,08,02,38,7.80
2012,10,08,02,39,7.80
2012,10,08,02,40,7.80
2012,10,08,02,41,7.70
2012,10,08,02,42,7.70
2012,10,08,02,43,7.70
2012,10,08,02,44,7.70
2012,10,08,02,45,7.70
2012,10,08,02,46,7.70
2012,10,08,02,47,7.70
2012,10,08,02,48,7.60
2012,10,08,02,49,7.60
2012,10,08,02,50,7.60
2012,10,08,02,51,7.60
2012,10,08,02,52,7.60
2012,10,08,02,53,7.60
2012,10,08,02,54,7.50
2012,10,08,02,55,7.50
2012,10,08,02,56,7.50
2012,10,08,02,57,7.50
2012,10,08,02,58,7.50
2012,10,08,02,59,7.50
2012,10,08,03,00,7.50
2012,10,08,03,01,7.50
2012,10,08,03,02,7.50
2012,10,08,03,03,7.50
2012,10,08,03,04,7.50
2012,10,08,03,05,7.40
2012,10,08,03,06,7.40
2012,10,08,03,07,7.40
2012,10,08,03,08,7.30
2012,10,08,03,09,7.30
2012,10,08,03,10,7.30
2012,10,08,03,11,7.30
2012,10,08,03,12,7.30
2012,10,08,03,13,7.30
2012,10,08,03,14,7.30
2012,10,08,03,15,7.30
2012,10,08,03,16,7.20
2012,10,08,03,17,7.20
2012,10,08,03,18,7.20
2012,10,08,03,19,7.20
2012,10,08,03,20,7.20
2012,10,08,03,21,7.10
2012,10,08,03,22,7.10
2012,10,08,03,23,7.10
2012,10,08,03,24,7.10
2012,10,08,03,25,7.10
2012,10,08,03,26,7.10
2012,10,08,03,27,7.10
2012,10,08,03,28,7.10
2012,10,08,03,29,7.10
2012,10,08,03,30,7.10
2012,10,08,03,31,7.10
2012,10,08,03,32,7.00
2012,10,08,03,33,7.00
2012,10,08,03,34,7.00
2012,10,08,03,35,7.00
2012,10,08,03,36,6.90
2012,10,08,03,37,6.90
2012,10,08,03,38,6.80
2012,10,08,03,39,6.80
2012,10,08,03,40,6.80
2012,10,08,03,41,6.80
2012,10,08,03,42,6.80
2012,10,08,03,43,6.80
2012,10,08,03,44,6.70
2012,10,08,03,45,6.70
2012,10,08,03,46,6.70
2012,10,08,03,47,6.70
2012,10,08,03,48,6.70
2012,10,08,03,49,6.70
2012,10,08,03,50,6.70
2012,10,08,03,51,6.60
2012,10,08,03,52,6.60
2012,10,08,03,53,6.60
2012,10,08,03,54,6.60
2012,10,08,03,55,6.60
2012,10,08,03,56,6.60
2012,10,08,03,57,6.60
2012,10,08,03,58,6.60
2012,10,08,03,59,6.60
2012,10,08,04,00,6.60
2012,10,08,04,01,6.60
2012,10,08,04,02,6.60
2012,10,08,04,03,6.60
2012,10,08,04,04,6.60
2012,10,08,04,05,6.60
2012,10,08,04,06,6.60
2012,10,08,04,07,6.70
2012,10,08,04,08,6.70
2012,10,08,04,09,6.70
2012,10,08,04,10,6.70
2012,10,08,04,11,6.70
2012,10,08,04,12,6.80
2012,10,08,04,13,6.80
2012,10,08,04,14,6.80
2012,10,08,04,15,6.80
2012,10,08,04,16,6.70
2012,10,08,04,17,6.70
2012,10,08,04,18,6.70
2012,10,08,04,19,6.70
2012,10,08,04,20,6.60
2012,10,08,04,21,6.60
2012,10,08,04,22,6.60
2012,10,08,04,23,6.60
2012,10,08,04,24,6.60
2012,10,08,04,25,6.60
2012,10,08,04,26,6.60
2012,10,08,04,27,6.60
2012,10,08,04,28,6.60
2012,10,08,04,29,6.60
2012,10,08,04,30,6.60
2012,10,08,04,31,6.60
2012,10,08,04,32,6.60
2012,10,08,04,33,6.60
2012,10,08,04,34,6.60
2012,10,08,04,35,6.60
2012,10,08,04,36,6.50
2012,10,08,04,37,6.40
2012,10,08,04,38,6.40
2012,10,08,04,39,6.40
2012,10,08,04,40,6.40
2012,10,08,04,41,6.40
2012,10,08,04,42,6.40
2012,10,08,04,43,6.40
2012,10,08,04,44,6.40
2012,10,08,04,45,6.40
2012,10,08,04,46,6.40
2012,10,08,04,47,6.40
2012,10,08,04,48,6.40
2012,10,08,04,49,6.40
2012,10,08,04,50,6.40
2012,10,08,04,51,6.40
2012,10,08,04,52,6.40
2012,10,08,04,53,6.40
2012,10,08,04,54,6.50
2012,10,08,04,55,6.60
2012,10,08,04,56,6.60
2012,10,08,04,57,6.60
2012,10,08,04,58,6.60
2012,10,08,04,59,6.60
2012,10,08,05,00,6.70
2012,10,08,05,01,6.70
2012,10,08,05,02,6.70
2012,10,08,05,03,6.70
2012,10,08,05,04,6.70
2012,10,08,05,05,6.70
2012,10,08,05,06,6.70
2012,10,08,05,07,6.70
2012,10,08,05,08,6.70
2012,10,08,05,09,6.70
2012,10,08,05,10,6.70
2012,10,08,05,11,6.70
2012,10,08,05,12,6.70
2012,10,08,05,13,6.60
2012,10,08,05,14,6.60
2012,10,08,05,15,6.60
2012,10,08,05,16,6.60
2012,10,08,05,17,6.60
2012,10,08,05,18,6.60
2012,10,08,05,19,6.60
2012,10,08,05,20,6.60
2012,10,08,05,21,6.60
2012,10,08,05,22,6.60
2012,10,08,05,23,6.60
2012,10,08,05,24,6.50
2012,10,08,05,25,6.40
2012,10,08,05,26,6.40
2012,10,08,05,27,6.40
2012,10,08,05,28,6.40
2012,10,08,05,29,6.40
2012,10,08,05,30,6.40
2012,10,08,05,31,6.40
2012,10,08,05,32,6.40
2012,10,08,05,33,6.40
2012,10,08,05,34,6.40
2012,10,08,05,35,6.40
2012,10,08,05,36,6.40
2012,10,08,05,37,6.40
2012,10,08,05,38,6.40
2012,10,08,05,39,6.40
2012,10,08,05,40,6.40
2012,10,08,05,41,6.30
2012,10,08,05,42,6.30
2012,10,08,05,43,6.30
2012,10,08,05,44,6.30
2012,10,08,05,45,6.30
2012,10,08,05,46,6.30
2012,10,08,05,47,6.30
2012,10,08,05,48,6.30
2012,10,08,05,49,6.30
2012,10,08,05,50,6.30
2012,10,08,05,51,6.30
2012,10,08,05,52,6.30
2012,10,08,05,53,6.30
2012,10,08,05,54,6.30
2012,10,08,05,55,6.30
2012,10,08,05,56,6.30
2012,10,08,05,57,6.30
2012,10,08,05,58,6.30
2012,10,08,05,59,6.30
2012,10,08,06,00,6.30
2012,10,08,06,01,6.30
2012,10,08,06,02,6.30
2012,10,08,06,03,6.30
2012,10,08,06,04,6.30
2012,10,08,06,05,6.30
2012,10,08,06,06,6.30
2012,10,08,06,07,6.30
2012,10,08,06,08,6.30
2012,10,08,06,09,6.30
2012,10,08,06,10,6.20
2012,10,08,06,11,6.20
2012,10,08,06,12,6.20
2012,10,08,06,13,6.20
2012,10,08,06,14,6.20
2012,10,08,06,15,6.20
2012,10,08,06,16,6.20
2012,10,08,06,17,6.20
2012,10,08,06,18,6.20
2012,10,08,06,19,6.20
2012,10,08,06,20,6.20
2012,10,08,06,21,6.20
2012,10,08,06,22,6.20
2012,10,08,06,23,6.20
2012,10,08,06,24,6.20
2012,10,08,06,25,6.20
2012,10,08,06,26,6.20
2012,10,08,06,27,6.20
2012,10,08,06,28,6.20
2012,10,08,06,29,6.20
2012,10,08,06,30,6.10
2012,10,08,06,31,6.10
2012,10,08,06,32,6.10
2012,10,08,06,33,6.10
2012,10,08,06,34,6.10
2012,10,08,06,35,6.10
2012,10,08,06,36,6.20
2012,10,08,06,37,6.20
2012,10,08,06,38,6.20
2012,10,08,06,39,6.20
2012,10,08,06,40,6.20
2012,10,08,06,41,6.10
2012,10,08,06,42,6.10
2012,10,08,06,43,6.10
2012,10,08,06,44,6.10
2012,10,08,06,45,6.10
2012,10,08,06,46,6.10
2012,10,08,06,47,6.10
2012,10,08,06,48,6.10
2012,10,08,06,49,6.10
2012,10,08,06,50,6.10
2012,10,08,06,51,6.10
2012,10,08,06,52,6.10
2012,10,08,06,53,6.10
2012,10,08,06,54,6.10
2012,10,08,06,55,6.10
2012,10,08,06,56,6.00
2012,10,08,06,57,6.00
2012,10,08,06,58,6.00
2012,10,08,06,59,6.00
2012,10,08,07,00,6.00
2012,10,08,07,01,6.10
2012,10,08,07,02,6.10
2012,10,08,07,03,6.10
2012,10,08,07,04,6.10
2012,10,08,07,05,6.10
2012,10,08,07,06,6.10
2012,10,08,07,07,6.10
2012,10,08,07,08,6.10
2012,10,08,07,09,6.10
2012,10,08,07,10,6.10
2012,10,08,07,11,6.10
2012,10,08,07,12,6.00
2012,10,08,07,13,6.00
2012,10,08,07,14,6.00
2012,10,08,07,15,6.00
2012,10,08,07,16,6.00
2012,10,08,07,17,6.00
2012,10,08,07,18,6.00
2012,10,08,07,19,6.00
2012,10,08,07,20,6.00
2012,10,08,07,21,6.00
2012,10,08,07,22,6.00
2012,10,08,07,23,6.10
2012,10,08,07,24,6.10
2012,10,08,07,25,6.10
2012,10,08,07,26,6.10
2012,10,08,07,27,6.00
2012,10,08,07,28,6.00
2012,10,08,07,29,6.00
2012,10,08,07,30,5.90
2012,10,08,07,31,5.90
2012,10,08,07,32,5.90
2012,10,08,07,33,5.80
2012,10,08,07,34,5.80
2012,10,08,07,35,5.80
2012,10,08,07,36,5.80
2012,10,08,07,37,5.70
2012,10,08,07,38,5.70
2012,10,08,07,39,5.80
2012,10,08,07,40,5.80
2012,10,08,07,41,5.80
2012,10,08,07,42,5.80
2012,10,08,07,43,5.80
2012,10,08,07,44,5.80
2012,10,08,07,45,5.80
2012,10,08,07,46,5.80
2012,10,08,07,47,5.80
2012,10,08,07,48,5.80
2012,10,08,07,49,5.90
2012,10,08,07,50,5.90
2012,10,08,07,51,5.90
2012,10,08,07,52,5.90
2012,10,08,07,53,5.90
2012,10,08,07,54,5.90
2012,10,08,07,55,5.90
2012,10,08,07,56,5.90
2012,10,08,07,57,5.90
2012,10,08,07,58,5.90
2012,10,08,07,59,5.90
2012,10,08,08,00,5.90
2012,10,08,08,01,5.90
2012,10,08,08,02,5.90
2012,10,08,08,03,5.90
2012,10,08,08,04,5.90
2012,10,08,08,05,5.90
2012,10,08,08,06,6.00
2012,10,08,08,07,6.00
2012,10,08,08,08,6.00
2012,10,08,08,09,6.00
2012,10,08,08,10,6.00
2012,10,08,08,11,6.10
2012,10,08,08,12,6.10
2012,10,08,08,13,6.10
2012,10,08,08,14,6.10
2012,10,08,08,15,6.20
2012,10,08,08,16,6.20
2012,10,08,08,17,6.20
2012,10,08,08,18,6.30
2012,10,08,08,19,6.30
2012,10,08,08,20,6.40
2012,10,08,08,21,6.40
2012,10,08,08,22,6.50
2012,10,08,08,23,6.60
2012,10,08,08,24,6.60
2012,10,08,08,25,6.60
2012,10,08,08,26,6.70
2012,10,08,08,27,6.70
2012,10,08,08,28,6.70
2012,10,08,08,29,6.80
2012,10,08,08,30,6.80
2012,10,08,08,31,6.90
2012,10,08,08,32,6.90
2012,10,08,08,33,7.00
2012,10,08,08,34,7.00
2012,10,08,08,35,7.10
2012,10,08,08,36,7.20
2012,10,08,08,37,7.20
2012,10,08,08,38,7.30
2012,10,08,08,39,7.30
2012,10,08,08,40,7.40
2012,10,08,08,41,7.40
2012,10,08,08,42,7.50
2012,10,08,08,43,7.60
2012,10,08,08,44,7.60
2012,10,08,08,45,7.70
2012,10,08,08,46,7.80
2012,10,08,08,47,7.80
2012,10,08,08,48,7.90
2012,10,08,08,49,8.00
2012,10,08,08,50,8.00
2012,10,08,08,51,8.10
2012,10,08,08,52,8.20
2012,10,08,08,53,8.30
2012,10,08,08,54,8.40
2012,10,08,08,55,8.50
2012,10,08,08,56,8.60
2012,10,08,08,57,8.70
2012,10,08,08,58,8.80
2012,10,08,08,59,8.90
2012,10,08,09,00,9.00
2012,10,08,09,01,9.20
2012,10,08,09,02,9.30
2012,10,08,09,03,9.40
2012,10,08,09,04,9.50
2012,10,08,09,05,9.60
2012,10,08,09,06,9.80
2012,10,08,09,07,9.90
2012,10,08,09,08,9.90
2012,10,08,09,09,10.00
2012,10,08,09,10,10.10
2012,10,08,09,11,10.20
2012,10,08,09,12,10.30
2012,10,08,09,13,10.40
2012,10,08,09,14,10.50
2012,10,08,09,15,10.60
2012,10,08,09,16,10.70
2012,10,08,09,17,10.80
2012,10,08,09,18,11.00
2012,10,08,09,19,11.10
2012,10,08,09,20,11.20
2012,10,08,09,21,11.40
2012,10,08,09,22,11.60
2012,10,08,09,23,11.70
2012,10,08,09,24,11.80
2012,10,08,09,25,12.00
2012,10,08,09,26,12.10
2012,10,08,09,27,12.30
2012,10,08,09,28,12.40
2012,10,08,09,29,12.60
2012,10,08,09,30,12.80
2012,10,08,09,31,12.90
2012,10,08,09,32,13.10
2012,10,08,09,33,13.30
2012,10,08,09,34,13.50
2012,10,08,09,35,13.70
2012,10,08,09,36,13.80
2012,10,08,09,37,14.00
2012,10,08,09,38,14.20
2012,10,08,09,39,14.30
2012,10,08,09,40,14.50
2012,10,08,09,41,14.60
2012,10,08,09,42,14.70
2012,10,08,09,43,14.80
2012,10,08,09,44,14.90
2012,10,08,09,45,15.00
2012,10,08,09,46,15.00
2012,10,08,09,47,15.00
2012,10,08,09,48,14.90
2012,10,08,09,49,14.90
2012,10,08,09,50,14.90
2012,10,08,09,51,14.90
2012,10,08,09,52,14.90
2012,10,08,09,53,14.90
2012,10,08,09,54,14.90
2012,10,08,09,55,14.90
2012,10,08,09,56,15.00
2012,10,08,09,57,15.00
2012,10,08,09,58,15.10
2012,10,08,09,59,15.10
2012,10,08,10,00,15.20
2012,10,08,10,01,15.30
2012,10,08,10,02,15.30
2012,10,08,10,03,15.40
2012,10,08,10,04,15.50
2012,10,08,10,05,15.60
2012,10,08,10,06,15.70
2012,10,08,10,07,15.80
2012,10,08,10,08,15.90
2012,10,08,10,09,15.90
2012,10,08,10,10,15.90
2012,10,08,10,11,16.00
2012,10,08,10,12,16.10
2012,10,08,10,13,16.10
2012,10,08,10,14,16.10
2012,10,08,10,15,16.10
2012,10,08,10,16,16.10
2012,10,08,10,17,16.20
2012,10,08,10,18,16.20
2012,10,08,10,19,16.30
2012,10,08,10,20,16.30
2012,10,08,10,21,16.40
2012,10,08,10,22,16.40
2012,10,08,10,23,16.50
2012,10,08,10,24,16.60
2012,10,08,10,25,16.70
2012,10,08,10,26,16.80
2012,10,08,10,27,16.90
2012,10,08,10,28,17.00
2012,10,08,10,29,17.00
2012,10,08,10,30,17.10
2012,10,08,10,31,17.10
2012,10,08,10,32,17.10
2012,10,08,10,33,17.20
2012,10,08,10,34,17.20
2012,10,08,10,35,17.30
2012,10,08,10,36,17.30
2012,10,08,10,37,17.30
2012,10,08,10,38,17.30
2012,10,08,10,39,17.30
2012,10,08,10,40,17.30
2012,10,08,10,41,17.30
2012,10,08,10,42,17.30
2012,10,08,10,43,17.40
2012,10,08,10,44,17.40
2012,10,08,10,45,17.50
2012,10,08,10,46,17.60
2012,10,08,10,47,17.70
2012,10,08,10,48,17.70
2012,10,08,10,49,17.70
2012,10,08,10,50,17.70
2012,10,08,10,51,17.60
2012,10,08,10,52,17.50
2012,10,08,10,53,17.40
2012,10,08,10,54,17.40
2012,10,08,10,55,17.40
2012,10,08,10,56,17.40
2012,10,08,10,57,17.30
2012,10,08,10,58,17.20
2012,10,08,10,59,17.00
2012,10,08,11,00,16.80
2012,10,08,11,01,16.60
2012,10,08,11,02,16.40
2012,10,08,11,03,16.30
2012,10,08,11,04,16.20
2012,10,08,11,05,16.20
2012,10,08,11,06,16.20
2012,10,08,11,07,16.10
2012,10,08,11,08,16.10
2012,10,08,11,09,16.20
2012,10,08,11,10,16.20
2012,10,08,11,11,16.30
2012,10,08,11,12,16.40
2012,10,08,11,13,16.50
2012,10,08,11,14,16.60
2012,10,08,11,15,16.70
2012,10,08,11,16,16.80
2012,10,08,11,17,16.90
2012,10,08,11,18,17.00
2012,10,08,11,19,17.00
2012,10,08,11,20,17.20
2012,10,08,11,21,17.30
2012,10,08,11,22,17.40
2012,10,08,11,23,17.60
2012,10,08,11,24,17.70
2012,10,08,11,25,17.70
2012,10,08,11,26,17.80
2012,10,08,11,27,17.90
2012,10,08,11,28,17.90
2012,10,08,11,29,18.00
2012,10,08,11,30,18.10
2012,10,08,11,31,18.10
2012,10,08,11,32,18.20
2012,10,08,11,33,18.20
2012,10,08,11,34,18.30
2012,10,08,11,35,18.40
2012,10,08,11,36,18.40
2012,10,08,11,37,18.40
2012,10,08,11,38,18.50
2012,10,08,11,39,18.40
2012,10,08,11,40,18.40
2012,10,08,11,41,18.40
2012,10,08,11,42,18.40
2012,10,08,11,43,18.30
2012,10,08,11,44,18.20
2012,10,08,11,45,18.20
2012,10,08,11,46,18.20
2012,10,08,11,47,18.20
2012,10,08,11,48,18.30
2012,10,08,11,49,18.30
2012,10,08,11,50,18.30
2012,10,08,11,51,18.40
2012,10,08,11,52,18.30
2012,10,08,11,53,18.40
2012,10,08,11,54,18.40
2012,10,08,11,55,18.40
2012,10,08,11,56,18.40
2012,10,08,11,57,18.50
2012,10,08,11,58,18.60
2012,10,08,11,59,18.70
2012,10,08,12,00,18.80
2012,10,08,12,01,18.80
2012,10,08,12,02,18.80
2012,10,08,12,03,18.70
2012,10,08,12,04,18.60
2012,10,08,12,05,18.60
2012,10,08,12,06,18.60
2012,10,08,12,07,18.60
2012,10,08,12,08,18.60
2012,10,08,12,09,18.60
2012,10,08,12,10,18.60
2012,10,08,12,11,18.50
2012,10,08,12,12,18.40
2012,10,08,12,13,18.30
2012,10,08,12,14,18.40
2012,10,08,12,15,18.50
2012,10,08,12,16,18.50
2012,10,08,12,17,18.40
2012,10,08,12,18,18.40
2012,10,08,12,19,18.50
2012,10,08,12,20,18.50
2012,10,08,12,21,18.40
2012,10,08,12,22,18.30
2012,10,08,12,23,18.30
2012,10,08,12,24,18.20
2012,10,08,12,25,18.20
2012,10,08,12,26,18.20
2012,10,08,12,27,18.20
2012,10,08,12,28,18.20
2012,10,08,12,29,18.30
2012,10,08,12,30,18.30
2012,10,08,12,31,18.20
2012,10,08,12,32,18.10
2012,10,08,12,33,18.10
2012,10,08,12,34,18.10
2012,10,08,12,35,18.10
2012,10,08,12,36,18.10
2012,10,08,12,37,18.10
2012,10,08,12,38,18.00
2012,10,08,12,39,17.90
2012,10,08,12,40,18.00
2012,10,08,12,41,18.10
2012,10,08,12,42,18.10
2012,10,08,12,43,18.00
2012,10,08,12,44,17.90
2012,10,08,12,45,17.90
2012,10,08,12,46,17.90
2012,10,08,12,47,17.90
2012,10,08,12,48,17.90
2012,10,08,12,49,17.70
2012,10,08,12,50,17.50
2012,10,08,12,51,17.20
2012,10,08,12,52,16.90
2012,10,08,12,53,16.60
2012,10,08,12,54,16.30
2012,10,08,12,55,16.10
2012,10,08,12,56,15.80
2012,10,08,12,57,15.70
2012,10,08,12,58,15.70
2012,10,08,12,59,15.60
2012,10,08,13,00,15.60
2012,10,08,13,01,15.70
2012,10,08,13,02,15.80
2012,10,08,13,03,15.80
2012,10,08,13,04,15.60
2012,10,08,13,05,15.60
2012,10,08,13,06,15.60
2012,10,08,13,07,15.60
2012,10,08,13,08,15.60
2012,10,08,13,09,15.70
2012,10,08,13,10,15.70
2012,10,08,13,11,15.80
2012,10,08,13,12,15.80
2012,10,08,13,13,15.90
2012,10,08,13,14,16.00
2012,10,08,13,15,16.10
2012,10,08,13,16,16.10
2012,10,08,13,17,16.10
2012,10,08,13,18,16.10
2012,10,08,13,19,16.10
2012,10,08,13,20,16.10
2012,10,08,13,21,16.10
2012,10,08,13,22,16.10
2012,10,08,13,23,16.10
2012,10,08,13,24,16.00
2012,10,08,13,25,15.90
2012,10,08,13,26,15.80
2012,10,08,13,27,15.80
2012,10,08,13,28,15.90
2012,10,08,13,29,16.00
2012,10,08,13,30,16.10
2012,10,08,13,31,16.20
2012,10,08,13,32,16.30
2012,10,08,13,33,16.40
2012,10,08,13,34,16.50
2012,10,08,13,35,16.60
2012,10,08,13,36,16.70
2012,10,08,13,37,16.80
2012,10,08,13,38,16.90
2012,10,08,13,39,16.90
2012,10,08,13,40,16.80
2012,10,08,13,41,16.80
2012,10,08,13,42,16.90
2012,10,08,13,43,16.90
2012,10,08,13,44,17.00
2012,10,08,13,45,17.10
2012,10,08,13,46,17.20
2012,10,08,13,47,17.20
2012,10,08,13,48,17.30
2012,10,08,13,49,17.30
2012,10,08,13,50,17.30
2012,10,08,13,51,17.40
2012,10,08,13,52,17.50
2012,10,08,13,53,17.60
2012,10,08,13,54,17.70
2012,10,08,13,55,17.80
2012,10,08,13,56,17.80
2012,10,08,13,57,17.90
2012,10,08,13,58,17.90
2012,10,08,13,59,17.90
2012,10,08,14,00,17.90
2012,10,08,14,01,17.90
2012,10,08,14,02,17.90
2012,10,08,14,03,17.90
2012,10,08,14,04,17.90
2012,10,08,14,05,17.90
2012,10,08,14,06,17.90
2012,10,08,14,07,17.90
2012,10,08,14,08,18.10
2012,10,08,14,09,18.20
2012,10,08,14,10,18.30
2012,10,08,14,11,18.40
2012,10,08,14,12,18.50
2012,10,08,14,13,18.60
2012,10,08,14,14,18.60
2012,10,08,14,15,18.70
2012,10,08,14,16,18.70
2012,10,08,14,17,18.70
2012,10,08,14,18,18.70
2012,10,08,14,19,18.70
2012,10,08,14,20,18.90
2012,10,08,14,21,19.00
2012,10,08,14,22,19.10
2012,10,08,14,23,19.10
2012,10,08,14,24,19.10
2012,10,08,14,25,19.10
2012,10,08,14,26,19.10
2012,10,08,14,27,19.10
2012,10,08,14,28,19.10
2012,10,08,14,29,19.10
2012,10,08,14,30,19.10
2012,10,08,14,31,19.00
2012,10,08,14,32,18.90
2012,10,08,14,33,18.90
2012,10,08,14,34,18.90
2012,10,08,14,35,18.90
2012,10,08,14,36,18.80
2012,10,08,14,37,18.70
2012,10,08,14,38,18.60
2012,10,08,14,39,18.60
2012,10,08,14,40,18.70
2012,10,08,14,41,18.70
2012,10,08,14,42,18.70
2012,10,08,14,43,18.80
2012,10,08,14,44,18.80
2012,10,08,14,45,18.80
2012,10,08,14,46,18.80
2012,10,08,14,47,18.80
2012,10,08,14,48,18.70
2012,10,08,14,49,18.70
2012,10,08,14,50,18.70
2012,10,08,14,51,18.70
2012,10,08,14,52,18.70
2012,10,08,14,53,18.70
2012,10,08,14,54,18.80
2012,10,08,14,55,18.90
2012,10,08,14,56,18.70
2012,10,08,14,57,18.70
2012,10,08,14,58,18.70
2012,10,08,14,59,18.60
2012,10,08,15,00,18.70
2012,10,08,15,01,18.70
2012,10,08,15,02,18.60
2012,10,08,15,03,18.60
2012,10,08,15,04,18.50
2012,10,08,15,05,18.50
2012,10,08,15,06,18.30
2012,10,08,15,07,18.20
2012,10,08,15,08,18.20
2012,10,08,15,09,18.20
2012,10,08,15,10,18.20
2012,10,08,15,11,18.20
2012,10,08,15,12,18.20
2012,10,08,15,13,18.20
2012,10,08,15,14,18.10
2012,10,08,15,15,18.10
2012,10,08,15,16,18.20
2012,10,08,15,17,18.20
2012,10,08,15,18,18.10
2012,10,08,15,19,18.10
2012,10,08,15,20,18.10
2012,10,08,15,21,18.10
2012,10,08,15,22,18.20
2012,10,08,15,23,18.20
2012,10,08,15,24,18.30
2012,10,08,15,25,18.40
2012,10,08,15,26,18.40
2012,10,08,15,27,18.40
2012,10,08,15,28,18.40
2012,10,08,15,29,18.50
2012,10,08,15,30,18.50
2012,10,08,15,31,18.60
2012,10,08,15,32,18.60
2012,10,08,15,33,18.60
2012,10,08,15,34,18.60
2012,10,08,15,35,18.60
2012,10,08,15,36,18.50
2012,10,08,15,37,18.50
2012,10,08,15,38,18.60
2012,10,08,15,39,18.60
2012,10,08,15,40,18.60
2012,10,08,15,41,18.70
2012,10,08,15,42,18.70
2012,10,08,15,43,18.70
2012,10,08,15,44,18.80
2012,10,08,15,45,18.90
2012,10,08,15,46,19.00
2012,10,08,15,47,19.10
2012,10,08,15,48,19.20
2012,10,08,15,49,19.20
2012,10,08,15,50,19.20
2012,10,08,15,51,19.30
2012,10,08,15,52,19.30
2012,10,08,15,53,19.30
2012,10,08,15,54,19.30
2012,10,08,15,55,19.30
2012,10,08,15,56,19.40
2012,10,08,15,57,19.40
2012,10,08,15,58,19.40
2012,10,08,15,59,19.40
2012,10,08,16,00,19.40
2012,10,08,16,01,19.40
2012,10,08,16,02,19.40
2012,10,08,16,03,19.30
2012,10,08,16,04,19.30
2012,10,08,16,05,19.30
2012,10,08,16,06,19.40
2012,10,08,16,07,19.40
2012,10,08,16,08,19.50
2012,10,08,16,09,19.50
2012,10,08,16,10,19.70
2012,10,08,16,11,19.80
2012,10,08,16,12,20.00
2012,10,08,16,13,20.10
2012,10,08,16,14,20.20
2012,10,08,16,15,20.20
2012,10,08,16,16,20.20
2012,10,08,16,17,20.30
2012,10,08,16,18,20.30
2012,10,08,16,19,20.40
2012,10,08,16,20,20.40
2012,10,08,16,21,20.50
2012,10,08,16,22,20.50
2012,10,08,16,23,20.50
2012,10,08,16,24,20.50
2012,10,08,16,25,20.50
2012,10,08,16,26,20.50
2012,10,08,16,27,20.50
2012,10,08,16,28,20.50
2012,10,08,16,29,20.50
2012,10,08,16,30,20.50
2012,10,08,16,31,20.50
2012,10,08,16,32,20.50
2012,10,08,16,33,20.50
2012,10,08,16,34,20.50
2012,10,08,16,35,20.50
2012,10,08,16,36,20.50
2012,10,08,16,37,20.50
2012,10,08,16,38,20.50
2012,10,08,16,39,20.50
2012,10,08,16,40,20.40
2012,10,08,16,41,20.40
2012,10,08,16,42,20.40
2012,10,08,16,43,20.40
2012,10,08,16,44,20.40
2012,10,08,16,45,20.40
2012,10,08,16,46,20.30
2012,10,08,16,47,20.30
2012,10,08,16,48,20.30
2012,10,08,16,49,20.30
2012,10,08,16,50,20.20
2012,10,08,16,51,20.20
2012,10,08,16,52,20.20
2012,10,08,16,53,20.20
2012,10,08,16,54,20.20
2012,10,08,16,55,20.20
2012,10,08,16,56,20.20
2012,10,08,16,57,20.20
2012,10,08,16,58,20.20
2012,10,08,16,59,20.20
2012,10,08,17,00,20.20
2012,10,08,17,01,20.20
2012,10,08,17,02,20.10
2012,10,08,17,03,20.10
2012,10,08,17,04,20.10
2012,10,08,17,05,20.00
2012,10,08,17,06,19.90
2012,10,08,17,07,19.90
2012,10,08,17,08,19.90
2012,10,08,17,09,19.90
2012,10,08,17,10,19.90
2012,10,08,17,11,19.90
2012,10,08,17,12,19.90
2012,10,08,17,13,19.90
2012,10,08,17,14,19.90
2012,10,08,17,15,19.90
2012,10,08,17,16,19.90
2012,10,08,17,17,19.90
2012,10,08,17,18,19.90
2012,10,08,17,19,19.90
2012,10,08,17,20,19.90
2012,10,08,17,21,19.90
2012,10,08,17,22,19.90
2012,10,08,17,23,19.90
2012,10,08,17,24,19.80
2012,10,08,17,25,19.80
2012,10,08,17,26,19.70
2012,10,08,17,27,19.60
2012,10,08,17,28,19.60
2012,10,08,17,29,19.60
2012,10,08,17,30,19.50
2012,10,08,17,31,19.50
2012,10,08,17,32,19.40
2012,10,08,17,33,19.40
2012,10,08,17,34,19.40
2012,10,08,17,35,19.30
2012,10,08,17,36,19.30
2012,10,08,17,37,19.30
2012,10,08,17,38,19.20
2012,10,08,17,39,19.20
2012,10,08,17,40,19.20
2012,10,08,17,41,19.10
2012,10,08,17,42,19.10
2012,10,08,17,43,19.10